• In Hungary
  • List of Countries
  • For 7 days
  • Water Temperature
  • Satellite Maps
  • Weather Map
  • News
  • Weather Widgets
  • user-avatar
    Login

    Hourly Weather Kapellen

    Today, 26 September, Wednesday

    Time Temperature Precipitation Wind Pressure Humidity
    00:00 +9°C° 0 mm 2 mps 776 mmHg 71%
    01:00 +8°C° 0 mm 2 mps 776 mmHg 71%
    02:00 +8°C° 0 mm 2 mps 776 mmHg 71%
    03:00 +8°C° 0 mm 2 mps 775 mmHg 71%
    04:00 +8°C° 0 mm 2 mps 775 mmHg 71%
    05:00 +7°C° 0 mm 3 mps 775 mmHg 70%
    06:00 +7°C° 0 mm 3 mps 775 mmHg 69%
    07:00 +9°C° 0 mm 3 mps 775 mmHg 63%
    08:00 +11°C° 0 mm 3 mps 775 mmHg 57%
    09:00 +13°C° 0 mm 3 mps 775 mmHg 51%
    10:00 +16°C° 0 mm 3 mps 774 mmHg 47%
    11:00 +17°C° 0 mm 3 mps 774 mmHg 43%
    12:00 +19°C° 0 mm 3 mps 774 mmHg 39%
    13:00 +19°C° 0 mm 3 mps 774 mmHg 39%
    14:00 +19°C° 0 mm 3 mps 773 mmHg 39%
    15:00 +20°C° 0 mm 3 mps 773 mmHg 40%
    16:00 +18°C° 0 mm 2 mps 773 mmHg 44%
    17:00 +16°C° 0 mm 2 mps 773 mmHg 48%
    18:00 +15°C° 0 mm 2 mps 773 mmHg 52%
    19:00 +14°C° 0 mm 2 mps 773 mmHg 53%
    20:00 +13°C° 0 mm 2 mps 773 mmHg 55%
    21:00 +13°C° 0 mm 1 mps 773 mmHg 56%
    22:00 +13°C° 0 mm 2 mps 773 mmHg 57%
    23:00 +12°C° 0 mm 2 mps 773 mmHg 58%

    Tomorrow, 27 September, Thursday

    Time Temperature Precipitation Wind Pressure Humidity
    00:00 +12°C° 0 mm 2 mps 773 mmHg 59%
    01:00 +12°C° 0 mm 2 mps 773 mmHg 60%
    02:00 +10°C° 0 mm 2 mps 773 mmHg 60%
    03:00 +10°C° 0 mm 2 mps 772 mmHg 61%
    04:00 +10°C° 0 mm 2 mps 772 mmHg 63%
    05:00 +9°C° 0 mm 2 mps 772 mmHg 64%
    06:00 +9°C° 0 mm 2 mps 772 mmHg 65%
    07:00 +12°C° 0 mm 2 mps 771 mmHg 61%
    08:00 +14°C° 0 mm 2 mps 771 mmHg 56%
    09:00 +16°C° 0 mm 3 mps 771 mmHg 52%
    10:00 +18°C° 0 mm 3 mps 771 mmHg 48%
    11:00 +19°C° 0 mm 3 mps 770 mmHg 44%
    12:00 +20°C° 0 mm 3 mps 769 mmHg 41%
    13:00 +21°C° 0 mm 3 mps 769 mmHg 42%
    14:00 +21°C° 0 mm 3 mps 769 mmHg 43%
    15:00 +21°C° 0 mm 3 mps 768 mmHg 44%
    16:00 +19°C° 0 mm 3 mps 768 mmHg 49%
    17:00 +17°C° 0 mm 2 mps 768 mmHg 55%
    18:00 +15°C° 0 mm 2 mps 768 mmHg 61%
    19:00 +15°C° 0 mm 2 mps 768 mmHg 64%
    20:00 +14°C° 0 mm 2 mps 768 mmHg 67%
    21:00 +14°C° 0 mm 2 mps 768 mmHg 70%
    22:00 +13°C° 0 mm 2 mps 767 mmHg 74%
    23:00 +13°C° 0 mm 2 mps 767 mmHg 77%

    Day after tomorrow, 28 September, Friday

    Time Temperature Precipitation Wind Pressure Humidity
    00:00 +13°C° 0 mm 2 mps 767 mmHg 80%
    01:00 +13°C° 0 mm 2 mps 767 mmHg 82%
    02:00 +12°C° 0 mm 2 mps 767 mmHg 85%
    03:00 +12°C° 0 mm 2 mps 767 mmHg 87%
    04:00 +11°C° 0 mm 3 mps 767 mmHg 89%
    05:00 +11°C° 0 mm 3 mps 767 mmHg 91%
    06:00 +11°C° 0 mm 4 mps 767 mmHg 93%
    07:00 +12°C° 0 mm 4 mps 768 mmHg 87%
    08:00 +13°C° 0 mm 5 mps 768 mmHg 81%
    09:00 +14°C° 0 mm 5 mps 769 mmHg 75%
    10:00 +14°C° 0 mm 5 mps 769 mmHg 69%
    11:00 +15°C° 0 mm 5 mps 769 mmHg 64%
    12:00 +15°C° 0 mm 5 mps 769 mmHg 59%
    13:00 +15°C° 0 mm 5 mps 769 mmHg 57%
    14:00 +15°C° 0 mm 5 mps 768 mmHg 55%
    15:00 +15°C° 0 mm 5 mps 768 mmHg 52%
    16:00 +14°C° 0 mm 5 mps 769 mmHg 55%
    17:00 +13°C° 0 mm 5 mps 769 mmHg 58%
    18:00 +12°C° 0 mm 5 mps 769 mmHg 60%
    19:00 +10°C° 0 mm 5 mps 770 mmHg 63%
    20:00 +10°C° 0 mm 4 mps 770 mmHg 66%
    21:00 +10°C° 0 mm 4 mps 771 mmHg 69%
    22:00 +8°C° 0 mm 4 mps 771 mmHg 72%
    23:00 +8°C° 0 mm 3 mps 771 mmHg 74%

    29 September, Saturday

    Time Temperature Precipitation Wind Pressure Humidity
    00:00 +8°C° 0 mm 3 mps 771 mmHg 77%
    01:00 +8°C° 0 mm 3 mps 771 mmHg 79%
    02:00 +7°C° 0 mm 3 mps 771 mmHg 80%
    03:00 +7°C° 0 mm 3 mps 771 mmHg 82%
    04:00 +7°C° 0 mm 3 mps 771 mmHg 83%
    05:00 +7°C° 0 mm 2 mps 771 mmHg 84%
    06:00 +6°C° 0 mm 2 mps 771 mmHg 85%
    07:00 +8°C° 0 mm 3 mps 771 mmHg 76%
    08:00 +10°C° 0 mm 3 mps 772 mmHg 68%
    09:00 +12°C° 0 mm 3 mps 772 mmHg 59%
    10:00 +13°C° 0 mm 3 mps 772 mmHg 55%
    11:00 +14°C° 0 mm 3 mps 771 mmHg 50%
    12:00 +16°C° 0 mm 3 mps 771 mmHg 46%
    13:00 +16°C° 0 mm 3 mps 771 mmHg 46%
    14:00 +16°C° 0 mm 3 mps 770 mmHg 46%
    15:00 +16°C° 0 mm 3 mps 770 mmHg 46%
    16:00 +14°C° 0 mm 3 mps 770 mmHg 51%
    17:00 +12°C° 0 mm 3 mps 770 mmHg 55%
    18:00 +12°C° 0 mm 2 mps 770 mmHg 60%
    19:00 +10°C° 0 mm 2 mps 770 mmHg 63%
    20:00 +10°C° 0 mm 2 mps 770 mmHg 65%
    21:00 +9°C° 0 mm 2 mps 770 mmHg 68%
    22:00 +9°C° 0 mm 2 mps 770 mmHg 70%
    23:00 +8°C° 0 mm 2 mps 770 mmHg 72%

    30 September, Sunday

    Time Temperature Precipitation Wind Pressure Humidity
    00:00 +8°C° 0 mm 2 mps 769 mmHg 74%
    01:00 +7°C° 0 mm 2 mps 769 mmHg 76%
    02:00 +7°C° 0 mm 2 mps 769 mmHg 78%
    03:00 +7°C° 0 mm 2 mps 768 mmHg 79%
    04:00 +6°C° 0 mm 2 mps 768 mmHg 80%
    05:00 +6°C° 0 mm 2 mps 768 mmHg 81%
    06:00 +6°C° 0 mm 2 mps 768 mmHg 82%
    07:00 +8°C° 0 mm 2 mps 768 mmHg 74%
    08:00 +10°C° 0 mm 2 mps 768 mmHg 66%
    09:00 +13°C° 0 mm 2 mps 768 mmHg 58%
    10:00 +14°C° 0 mm 2 mps 767 mmHg 55%
    11:00 +15°C° 0 mm 2 mps 767 mmHg 51%
    12:00 +16°C° 0 mm 3 mps 767 mmHg 48%
    13:00 +16°C° 0 mm 3 mps 766 mmHg 48%
    14:00 +16°C° 0 mm 3 mps 766 mmHg 48%
    15:00 +16°C° 0 mm 3 mps 766 mmHg 49%
    16:00 +14°C° 0 mm 3 mps 766 mmHg 54%
    17:00 +13°C° 0 mm 3 mps 766 mmHg 58%
    18:00 +12°C° 0 mm 3 mps 766 mmHg 63%
    19:00 +11°C° 0 mm 3 mps 766 mmHg 66%
    20:00 +10°C° 0 mm 3 mps 766 mmHg 70%
    21:00 +10°C° 0 mm 3 mps 767 mmHg 73%
    22:00 +10°C° 0 mm 2 mps 766 mmHg 75%
    23:00 +9°C° 0 mm 2 mps 766 mmHg 76%

    1 October, Monday

    Time Temperature Precipitation Wind Pressure Humidity
    00:00 +9°C° 0 mm 2 mps 766 mmHg 78%
    01:00 +9°C° 0 mm 2 mps 766 mmHg 79%
    02:00 +9°C° 0 mm 2 mps 767 mmHg 80%
    03:00 +10°C° 0 mm 2 mps 767 mmHg 81%
    04:00 +10°C° 0 mm 3 mps 767 mmHg 82%
    05:00 +10°C° 0 mm 3 mps 767 mmHg 83%
    06:00 +10°C° 0 mm 4 mps 767 mmHg 84%
    07:00 +11°C° 0 mm 4 mps 768 mmHg 77%
    08:00 +12°C° 0 mm 4 mps 768 mmHg 69%
    09:00 +13°C° 0 mm 5 mps 769 mmHg 62%
    10:00 +14°C° 0 mm 5 mps 769 mmHg 59%
    11:00 +14°C° 0 mm 5 mps 769 mmHg 57%
    12:00 +15°C° 0 mm 5 mps 769 mmHg 55%
    13:00 +14°C° 0 mm 5 mps 769 mmHg 54%
    14:00 +14°C° 0 mm 6 mps 769 mmHg 54%
    15:00 +14°C° 0 mm 6 mps 769 mmHg 53%
    16:00 +12°C° 0 mm 5 mps 770 mmHg 56%
    17:00 +11°C° 0 mm 4 mps 770 mmHg 58%
    18:00 +10°C° 0 mm 4 mps 770 mmHg 61%
    19:00 +9°C° 0 mm 3 mps 771 mmHg 63%
    20:00 +8°C° 0 mm 3 mps 771 mmHg 65%
    21:00 +8°C° 0 mm 2 mps 772 mmHg 68%
    22:00 +7°C° 0 mm 2 mps 772 mmHg 69%
    23:00 +8°C° 0 mm 1 mps 772 mmHg 71%
    Show more